Location: Table Mountain
(47.2500°N, 120.5778°W)
Time: 11:35:54
(UTC-08:00)

Envisat - Pass Details

Date: 12 October 2017
Orbit: 764 x 766 km, 98.2° (Epoch: 17 December)

Event Time Altitude Azimuth Distance (km) Brightness Sun altitude
Exits shadow 21:54:26 23° 262° (W) 1,596 5.0 -36.0°
Maximum altitude 21:54:46 23° 268° (W) 1,590 5.0 -36.0°
Drops below altitude 10° 21:58:47 10° 320° (NW) 2,311 6.2 -36.6°
Sets 22:01:34 0° 335° (NNW) 3,243 7.0 -37.0°
